Location: Erskine
(52.3216°N, 112.8806°W)
Time: 11:42:27
(UTC+00:00)

MOZHAYETS 4 - Pass Details

Date: 07 December 2023
Orbit: 654 x 672 km, 98.3° (Epoch: 03 March)

Event Time Altitude Azimuth Distance (km) Brightness Sun altitude
Rises 01:06:42 0° 5° (N) 3,036 10.9 -15.3°
Maximum altitude 01:12:48 21° 302° (WNW) 1,520 10.0 -16.2°
Drops below altitude 10° 01:16:11 10° 255° (WSW) 2,110 11.6 -16.7°
Sets 01:18:52 0° 239° (WSW) 3,020 12.6 -17.1°
